GW0571 Weather Reports


time (UTC)temp
C
wind
direction
speed
KPH
gust
KPH
rain 1hr
cm
rain 24hr
cm
rain mn
cm
humidity
%
barometer
mb
20260831133951 18 185 0.0 8.0 0.00 0.00 0.00 88 1020.5
20260831133446 18 149 4.8 6.4 0.00 0.00 0.00 88 1020.6
20260831132941 18 216 3.2 4.8 0.00 0.00 0.00 89 1020.6
20260831132437 18 184 4.8 4.8 0.00 0.00 0.00 89 1020.7
20260831131936 18 189 3.2 6.4 0.00 0.00 0.00 90 1020.8
20260831131431 18 160 0.0 4.8 0.00 0.00 0.00 91 1020.7
20260831130927 18 129 0.0 3.2 0.00 0.00 0.00 92 1020.7
20260831130422 17 151 4.8 8.0 0.00 0.00 0.00 92 1020.8
20260831125921 17 145 0.0 3.2 0.00 0.00 0.00 95 1020.7
20260831125416 17 116 4.8 6.4 0.00 0.00 0.00 96 1020.9
20260831124912 17 142 3.2 4.8 0.00 0.00 0.00 96 1020.7
20260831124408 17 142 3.2 4.8 0.00 0.00 0.00 96 1020.6
20260831123908 17 137 1.6 3.2 0.00 0.00 0.00 96 1020.8
20260831123407 16 109 1.6 3.2 0.00 0.00 0.00 96 1020.6
20260831122902 16 144 1.6 4.8 0.00 0.00 0.00 96 1020.6
20260831122357 16 147 1.6 3.2 0.00 0.00 0.00 96 1020.5
20260831121852 16 50 0.0 1.6 0.00 0.00 0.00 96 1020.6
20260831121348 16 76 0.0 1.6 0.00 0.00 0.00 96 1021.0
20260831120844 16 19 0.0 3.2 0.00 0.00 0.00 96 1020.8
20260831120338 16 224 0.0 3.2 0.00 0.00 0.00 96 1020.9
20260831115833 16 89 0.0 1.6 0.00 0.00 0.00 96 1020.9
20260831115330 16 119 0.0 1.6 0.00 0.00 0.00 96 1020.9
20260831114829 15 276 0.0 1.6 0.00 0.00 0.00 96 1020.9
20260831114327 15 6 0.0 1.6 0.00 0.00 0.00 96 1020.8
20260831113824 15 89 0.0 1.6 0.00 0.00 0.00 96 1020.9
20260831113323 15 94 1.6 3.2 0.00 0.00 0.00 96 1020.7
20260831112818 15 72 0.0 3.2 0.00 0.00 0.00 96 1020.5
20260831112313 15 142 0.0 1.6 0.00 0.00 0.00 96 1020.7
20260831111808 15 89 1.6 3.2 0.00 0.00 0.00 96 1020.6
20260831111305 15 96 1.6 3.2 0.00 0.00 0.00 96 1020.8
20260831110801 15 212 0.0 3.2 0.00 0.00 0.00 96 1020.8
20260831110255 15 224 0.0 3.2 0.00 0.00 0.00 96 1020.4
20260831105753 15 147 0.0 3.2 0.00 0.00 0.00 96 1020.1
20260831105250 15 106 0.0 3.2 0.00 0.00 0.00 96 1020.2
20260831104749 15 87 0.0 3.2 0.00 0.00 0.00 96 1020.0
20260831104246 15 60 0.0 3.2 0.00 0.00 0.00 96 1020.2
20260831103746 15 256 0.0 3.2 0.00 0.00 0.00 96 1020.1
20260831103242 15 29 0.0 3.2 0.00 0.00 0.00 96 1020.0
20260831102742 15 134 0.0 3.2 0.00 0.00 0.00 96 1019.9
20260831102236 15 124 0.0 3.2 0.00 0.00 0.00 96 1019.9
20260831101732 14 224 0.0 1.6 0.00 0.00 0.00 96 1020.1
20260831101228 14 124 0.0 1.6 0.00 0.00 0.00 96 1020.1
20260831100724 14 111 0.0 1.6 0.00 0.00 0.00 96 1020.2
20260831100219 14 82 0.0 3.2 0.00 0.00 0.00 96 1020.2
20260831095718 14 30 0.0 3.2 0.00 0.00 0.00 96 1020.1
20260831095213 14 37 0.0 1.6 0.00 0.00 0.00 96 1020.3
20260831094708 15 37 0.0 3.2 0.00 0.00 0.00 96 1020.2
20260831094204 14 122 1.6 3.2 0.00 0.00 0.00 96 1020.3
20260831093700 14 129 0.0 1.6 0.00 0.00 0.00 96 1020.2
20260831093155 14 116 0.0 3.2 0.00 0.00 0.00 96 1020.2
20260831092651 14 143 3.2 3.2 0.00 0.00 0.00 96 1020.1
20260831092147 14 112 1.6 3.2 0.00 0.00 0.00 96 1020.1
20260831091646 14 142 1.6 4.8 0.00 0.00 0.00 96 1020.3
20260831091142 13 115 3.2 3.2 0.00 0.00 0.00 96 1020.2
20260831090637 13 106 1.6 3.2 0.00 0.00 0.00 96 1020.3
20260831090133 13 30 1.6 3.2 0.00 0.00 0.00 96 1020.1
20260831085628 13 37 0.0 1.6 0.00 0.00 0.00 96 1020.1
20260831085124 14 50 0.0 1.6 0.00 0.00 0.00 96 1020.0
20260831084619 14 243 0.0 3.2 0.00 0.00 0.00 96 1019.9
20260831084115 15 66 3.2 3.2 0.00 0.00 0.00 96 1019.6
20260831083611 14 126 1.6 3.2 0.00 0.00 0.00 96 1019.8
20260831083106 13 92 3.2 3.2 0.00 0.00 0.00 96 1020.2
20260831082604 13 119 1.6 3.2 0.00 0.00 0.00 96 1020.0
20260831082100 13 121 0.0 3.2 0.00 0.00 0.00 96 1020.2
20260831081555 13 6 1.6 3.2 0.00 0.00 0.00 96 1019.8
20260831081051 13 129 0.0 0.0 0.00 0.00 0.00 96 1020.0
20260831080546 13 32 0.0 1.6 0.00 0.00 0.00 96 1019.8
20260831080041 14 50 0.0 1.6 0.00 0.00 0.00 96 1019.6
20260831075536 13 115 1.6 3.2 0.00 0.00 0.00 96 1020.1
20260831075032 14 89 0.0 0.0 0.00 0.00 0.00 96 1020.0
20260831074531 14 89 0.0 1.6 0.00 0.00 0.00 96 1020.1
20260831074031 14 89 0.0 0.0 0.00 0.00 0.00 96 1020.3
20260831073526 14 113 0.0 0.0 0.00 0.00 0.00 96 1020.0
20260831073026 14 113 0.0 1.6 0.00 0.00 0.00 96 1019.9
20260831072521 14 111 1.6 1.6 0.00 0.00 0.00 96 1020.1
20260831072018 14 37 0.0 1.6 0.00 0.00 0.00 96 1019.9
20260831071516 14 66 0.0 1.6 0.00 0.00 0.00 96 1020.0
20260831071012 14 142 0.0 1.6 0.00 0.00 0.00 96 1020.0
20260831070510 15 98 0.0 1.6 0.00 0.00 0.00 96 1020.1
20260831070005 15 103 0.0 1.6 0.00 0.00 0.00 96 1019.9
20260831065503 15 32 0.0 3.2 0.00 0.00 0.00 96 1020.3
20260831064957 15 142 0.0 1.6 0.00 0.00 0.00 96 1020.0
20260831064453 15 50 0.0 3.2 0.00 0.00 0.00 96 1020.1
20260831063948 15 55 0.0 0.0 0.00 0.00 0.00 96 1019.9
20260831063443 15 71 0.0 3.2 0.00 0.00 0.00 96 1019.8
20260831062937 15 89 0.0 3.2 0.00 0.00 0.00 96 1020.1
20260831062433 15 119 0.0 1.6 0.00 0.00 0.00 96 1020.3
20260831061932 15 202 0.0 3.2 0.00 0.00 0.00 96 1020.3
20260831061430 15 131 1.6 3.2 0.00 0.00 0.00 96 1020.2
20260831060927 16 113 0.0 3.2 0.00 0.00 0.00 96 1020.3
20260831060427 16 110 0.0 0.0 0.00 0.00 0.00 96 1020.2
20260831055927 16 89 0.0 3.2 0.00 0.00 0.00 96 1020.4
20260831055422 16 121 1.6 3.2 0.00 0.00 0.00 96 1020.6
20260831054917 16 149 0.0 1.6 0.00 0.00 0.00 96 1020.6
20260831054412 16 44 0.0 1.6 0.00 0.00 0.00 96 1020.7
20260831053912 16 53 0.0 1.6 0.00 0.00 0.00 96 1020.6
20260831053409 16 89 1.6 3.2 0.00 0.00 0.00 96 1020.4
20260831052905 16 217 0.0 3.2 0.00 0.00 0.00 96 1020.7
20260831052404 16 147 0.0 1.6 0.00 0.00 0.00 96 1020.4
20260831051903 16 142 0.0 0.0 0.00 0.00 0.00 96 1020.5
20260831051401 16 129 1.6 3.2 0.00 0.00 0.00 95 1020.6
20260831050856 16 139 0.0 1.6 0.00 0.00 0.00 95 1020.5
20260831050350 16 120 0.0 3.2 0.00 0.00 0.00 95 1020.5
20260831045844 16 142 0.0 0.0 0.00 0.00 0.00 94 1020.5
20260831045343 16 142 0.0 0.0 0.00 0.00 0.00 94 1020.5
20260831044838 16 142 0.0 0.0 0.00 0.00 0.00 94 1020.5
20260831044333 17 142 0.0 0.0 0.00 0.00 0.00 94 1020.5
20260831043830 17 122 0.0 1.6 0.00 0.00 0.00 94 1020.7
20260831043328 17 124 0.0 3.2 0.00 0.00 0.00 94 1020.6
20260831042824 17 142 0.0 1.6 0.00 0.00 0.00 94 1020.4
20260831042323 17 89 0.0 0.0 0.00 0.00 0.00 93 1020.4
20260831041819 17 89 0.0 0.0 0.00 0.00 0.00 93 1020.5
20260831041318 17 135 0.0 0.0 0.00 0.00 0.00 93 1020.7
20260831040813 17 130 1.6 1.6 0.00 0.00 0.00 93 1020.4
20260831040312 17 129 0.0 0.0 0.00 0.00 0.00 93 1020.5
20260831035811 17 129 0.0 1.6 0.00 0.00 0.00 93 1020.4
20260831035309 17 117 0.0 1.6 0.00 0.00 0.00 92 1020.5
20260831034804 17 126 1.6 1.6 0.00 0.00 0.00 92 1020.5
20260831034259 17 142 0.0 1.6 0.00 0.00 0.00 92 1020.6
20260831033754 17 135 0.0 0.0 0.00 0.00 0.00 92 1020.5
20260831033249 17 130 0.0 3.2 0.00 0.00 0.00 92 1020.5
20260831032744 17 134 0.0 1.6 0.00 0.00 0.00 92 1020.6
20260831032239 17 143 1.6 1.6 0.00 0.00 0.00 92 1020.5
20260831031734 17 147 0.0 1.6 0.00 0.00 0.00 92 1020.7
20260831031228 17 147 0.0 1.6 0.00 0.00 0.00 91 1020.6
20260831030728 17 150 0.0 1.6 0.00 0.00 0.00 91 1020.5
20260831030226 17 50 0.0 0.0 0.00 0.00 0.00 91 1020.6
20260831025726 17 124 0.0 1.6 0.00 0.00 0.00 91 1020.6
20260831025220 17 69 0.0 0.0 0.00 0.00 0.00 90 1020.6
20260831024717 17 69 0.0 1.6 0.00 0.00 0.00 90 1020.5
20260831024215 17 246 0.0 0.0 0.00 0.00 0.00 89 1020.7
20260831023714 17 246 0.0 0.0 0.00 0.00 0.00 89 1020.7
20260831023213 17 246 0.0 0.0 0.00 0.00 0.00 89 1020.7
20260831022703 17 246 0.0 4.8 0.00 0.00 0.00 89 1020.6
20260831022157 17 142 0.0 0.0 0.00 0.00 0.00 89 1020.6
20260831021656 18 13 0.0 0.0 0.00 0.00 0.00 89 1020.7
20260831021152 18 13 0.0 0.0 0.00 0.00 0.00 89 1020.8
20260831020648 18 244 3.2 3.2 0.00 0.00 0.00 88 1020.8
20260831020148 18 256 0.0 4.8 0.00 0.00 0.00 88 1020.6
20260831015643 18 111 1.6 3.2 0.00 0.00 0.00 88 1020.6
20260831015143 18 223 0.0 3.2 0.00 0.00 0.00 88 1020.5
20260831014638 18 230 0.0 0.0 0.00 0.00 0.00 88 1020.4
20260831014133 18 113 0.0 1.6 0.00 0.00 0.00 87 1020.7
20260831013630 18 202 0.0 8.0 0.00 0.00 0.00 87 1020.7
20260831013129 18 256 1.6 3.2 0.00 0.00 0.00 87 1020.7
20260831012624 18 269 0.0 3.2 0.00 0.00 0.00 86 1020.5
20260831012119 18 247 3.2 4.8 0.00 0.00 0.00 86 1020.7
20260831011618 18 235 4.8 6.4 0.00 0.00 0.00 86 1020.5
20260831011114 18 282 0.0 8.0 0.00 0.00 0.00 86 1020.2
20260831010610 18 235 3.2 4.8 0.00 0.00 0.00 86 1020.3
20260831010106 18 254 3.2 4.8 0.00 0.00 0.00 86 1020.5
20260831005605 18 228 1.6 4.8 0.00 0.00 0.00 87 1020.3
20260831005100 18 230 0.0 0.0 0.00 0.00 0.00 86 1020.1
20260831004556 18 230 0.0 1.6 0.00 0.00 0.00 85 1020.1
20260831004052 18 235 0.0 3.2 0.00 0.00 0.00 85 1020.1
20260831003548 18 309 0.0 0.0 0.00 0.00 0.00 86 1020.0
20260831003043 18 309 0.0 4.8 0.00 0.00 0.00 85 1020.0
20260831002542 18 232 1.6 3.2 0.00 0.00 0.00 87 1019.8
20260831002037 18 32 0.0 0.0 0.00 0.00 0.00 87 1019.9
20260831001533 18 32 0.0 0.0 0.00 0.00 0.00 86 1019.8
20260831001029 18 50 0.0 4.8 0.00 0.00 0.00 86 1019.4
20260831000525 18 50 0.0 1.6 0.00 0.00 0.00 86 1019.6
20260831000024 18 37 0.0 0.0 0.00 0.00 0.00 85 1019.5
20260830235518 18 287 0.0 4.8 0.00 0.00 0.00 84 1019.4
20260830235013 18 285 0.0 4.8 0.00 0.00 0.00 84 1019.3
20260830234508 18 314 0.0 1.6 0.00 0.00 0.00 84 1019.2
20260830234003 18 322 0.0 1.6 0.00 0.00 0.00 84 1019.5
20260830233459 18 248 0.0 6.4 0.00 0.00 0.00 84 1019.2
20260830232954 18 326 0.0 3.2 0.00 0.00 0.00 85 1019.5
20260830232450 19 322 0.0 1.6 0.00 0.00 0.00 84 1019.5
20260830231947 19 232 4.8 6.4 0.00 0.00 0.00 82 1019.4
20260830231442 19 234 3.2 4.8 0.00 0.00 0.00 82 1019.2
20260830230941 19 252 1.6 4.8 0.00 0.00 0.00 82 1019.4
20260830230437 19 229 1.6 3.2 0.00 0.00 0.00 83 1019.2
20260830225936 19 246 0.0 3.2 0.00 0.00 0.00 82 1019.3
20260830225432 19 249 3.2 4.8 0.00 0.00 0.00 82 1019.4
20260830224932 19 230 0.0 1.6 0.00 0.00 0.00 82 1019.4
20260830224430 20 249 0.0 3.2 0.00 0.00 0.00 82 1019.4
20260830223927 20 230 0.0 4.8 0.00 0.00 0.00 82 1019.3
20260830223423 20 238 3.2 4.8 0.00 0.00 0.00 82 1019.4
20260830222922 20 235 0.0 3.2 0.00 0.00 0.00 81 1019.3
20260830222418 20 243 1.6 1.6 0.00 0.00 0.00 81 1019.2
20260830221914 20 259 3.2 4.8 0.00 0.00 0.00 81 1019.1
20260830221410 20 249 0.0 0.0 0.00 0.00 0.00 82 1019.4
20260830220905 20 299 0.0 3.2 0.00 0.00 0.00 82 1019.3
20260830220405 20 283 0.0 3.2 0.00 0.00 0.00 82 1019.2
20260830215902 20 249 0.0 1.6 0.00 0.00 0.00 84 1019.3
20260830215402 20 142 0.0 1.6 0.00 0.00 0.00 84 1019.1
20260830214857 20 173 0.0 1.6 0.00 0.00 0.00 84 1018.9
20260830214352 20 157 0.0 0.0 0.00 0.00 0.00 83 1019.2
20260830213847 20 137 3.2 3.2 0.00 0.00 0.00 82 1019.1
20260830213342 20 150 0.0 1.6 0.00 0.00 0.00 81 1019.1
20260830212838 20 153 1.6 3.2 0.00 0.00 0.00 82 1019.3
20260830212333 20 229 0.0 1.6 0.00 0.00 0.00 81 1019.4
20260830211832 20 245 0.0 3.2 0.00 0.00 0.00 80 1019.4
20260830211327 20 205 0.0 0.0 0.00 0.00 0.00 80 1019.4
20260830210823 20 236 1.6 4.8 0.00 0.00 0.00 79 1019.3
20260830210322 20 252 3.2 6.4 0.00 0.00 0.00 78 1019.6
20260830205820 20 234 0.0 3.2 0.00 0.00 0.00 78 1019.3
20260830205319 20 256 0.0 3.2 0.00 0.00 0.00 78 1019.2
20260830204815 20 257 0.0 1.6 0.00 0.00 0.00 79 1019.4
20260830204314 20 269 0.0 4.8 0.00 0.00 0.00 78 1019.2
20260830203810 20 207 0.0 1.6 0.00 0.00 0.00 80 1019.2
20260830203306 20 156 0.0 1.6 0.00 0.00 0.00 80 1019.3
20260830202805 20 212 1.6 3.2 0.00 0.00 0.00 80 1019.4
20260830202300 20 318 0.0 3.2 0.00 0.00 0.00 79 1019.3
20260830201755 20 304 0.0 1.6 0.00 0.00 0.00 80 1019.4
20260830201249 20 344 0.0 1.6 0.00 0.00 0.00 80 1019.2
20260830200745 20 352 1.6 3.2 0.00 0.00 0.00 79 1019.2
20260830200244 20 315 1.6 3.2 0.00 0.00 0.00 79 1019.2
20260830195740 20 352 0.0 6.4 0.00 0.00 0.00 78 1019.2
20260830195238 20 348 1.6 8.0 0.00 0.00 0.00 78 1019.5
20260830194737 20 332 3.2 3.2 0.00 0.00 0.00 76 1019.1
20260830194232 20 318 3.2 6.4 0.00 0.00 0.00 75 1019.2
20260830193731 21 13 1.6 8.0 0.00 0.00 0.00 76 1019.1
20260830193226 21 276 3.2 6.4 0.00 0.00 0.00 72 1019.1
20260830192722 21 316 4.8 4.8 0.00 0.00 0.00 72 1019.3
20260830192217 21 276 3.2 6.4 0.00 0.00 0.00 72 1019.2
20260830191713 21 269 3.2 6.4 0.00 0.00 0.00 72 1019.1
20260830191212 22 322 4.8 8.0 0.00 0.00 0.00 75 1019.2
20260830190708 22 239 4.8 9.7 0.00 0.00 0.00 74 1019.1
20260830190203 22 238 1.6 4.8 0.00 0.00 0.00 74 1019.0
20260830185701 23 256 3.2 4.8 0.00 0.00 0.00 72 1018.9
20260830185157 23 183 3.2 8.0 0.00 0.00 0.00 73 1019.0
20260830184656 23 243 4.8 6.4 0.00 0.00 0.00 72 1019.1
20260830184155 23 178 3.2 8.0 0.00 0.00 0.00 73 1019.0
20260830183651 23 211 0.0 9.7 0.00 0.00 0.00 69 1019.1
20260830183146 23 242 4.8 9.7 0.00 0.00 0.00 68 1019.1
20260830182641 23 248 6.4 11.3 0.00 0.00 0.00 67 1019.1
20260830182137 23 242 6.4 8.0 0.00 0.00 0.00 69 1019.2
20260830181633 23 209 3.2 6.4 0.00 0.00 0.00 70 1019.3
20260830181133 23 196 1.6 9.7 0.00 0.00 0.00 70 1018.9
20260830180632 23 201 3.2 8.0 0.00 0.00 0.00 70 1019.1
20260830180127 23 159 3.2 9.7 0.00 0.00 0.00 68 1019.2
20260830175625 23 135 4.8 8.0 0.00 0.00 0.00 67 1019.1
20260830175121 24 183 1.6 11.3 0.00 0.00 0.00 66 1019.4
20260830174616 23 249 3.2 8.0 0.00 0.00 0.00 66 1019.3
20260830174112 23 249 4.8 9.7 0.00 0.00 0.00 67 1019.4
20260830173607 23 250 0.0 6.4 0.00 0.00 0.00 68 1019.4
20260830173102 23 246 4.8 12.9 0.00 0.00 0.00 66 1019.4
20260830172559 24 267 3.2 9.7 0.00 0.00 0.00 66 1019.5
20260830172054 24 243 9.7 9.7 0.00 0.00 0.00 64 1019.4
20260830171549 24 299 0.0 9.7 0.00 0.00 0.00 66 1019.5
20260830171044 24 249 9.7 11.3 0.00 0.00 0.00 64 1019.4
20260830170544 23 335 3.2 12.9 0.00 0.00 0.00 69 1019.5
20260830170043 23 254 12.9 16.1 0.00 0.00 0.00 65 1019.3
20260830165539 23 130 3.2 9.7 0.00 0.00 0.00 66 1019.9
20260830165034 24 237 8.0 12.9 0.00 0.00 0.00 67 1019.9
20260830164530 23 135 3.2 12.9 0.00 0.00 0.00 69 1019.8
20260830164026 23 243 6.4 14.5 0.00 0.00 0.00 66 1019.9
20260830163523 23 240 4.8 12.9 0.00 0.00 0.00 66 1019.8
20260830163022 23 225 6.4 8.0 0.00 0.00 0.00 70 1019.6
20260830162518 23 227 4.8 12.9 0.00 0.00 0.00 67 1019.9
20260830162018 24 143 0.0 8.0 0.00 0.00 0.00 68 1020.1
20260830161513 23 269 0.0 11.3 0.00 0.00 0.00 69 1020.1
20260830161008 24 263 8.0 11.3 0.00 0.00 0.00 66 1020.1
20260830160504 23 222 6.4 12.9 0.00 0.00 0.00 70 1020.3
20260830155958 22 210 4.8 11.3 0.00 0.00 0.00 71 1020.4
20260830155455 22 225 6.4 11.3 0.00 0.00 0.00 71 1020.3
20260830154950 22 231 8.0 11.3 0.00 0.00 0.00 70 1020.3
20260830154446 21 248 4.8 8.0 0.00 0.00 0.00 75 1020.4
20260830153942 22 236 1.6 6.4 0.00 0.00 0.00 76 1020.3
20260830153438 21 247 6.4 9.7 0.00 0.00 0.00 74 1020.3
20260830152937 21 219 4.8 8.0 0.00 0.00 0.00 76 1020.4
20260830152432 20 244 3.2 8.0 0.00 0.00 0.00 76 1020.4
20260830151931 20 197 0.0 16.1 0.00 0.00 0.00 75 1020.6
20260830151426 21 250 12.9 14.5 0.00 0.00 0.00 75 1020.6
20260830150921 20 250 8.0 11.3 0.00 0.00 0.00 75 1020.5
20260830150420 20 246 6.4 9.7 0.00 0.00 0.00 76 1020.7
20260830145914 20 240 8.0 11.3 0.00 0.00 0.00 75 1020.7
20260830145409 20 256 6.4 12.9 0.00 0.00 0.00 75 1020.7
20260830144904 20 139 3.2 8.0 0.00 0.00 0.00 76 1020.5
20260830144401 20 234 3.2 11.3 0.00 0.00 0.00 77 1020.7
20260830143855 19 208 3.2 9.7 0.00 0.00 0.00 76 1020.7
20260830143350 20 226 4.8 6.4 0.00 0.00 0.00 78 1020.6
20260830142849 18 146 3.2 8.0 0.00 0.00 0.00 78 1020.6
20260830142344 19 262 3.2 8.0 0.00 0.00 0.00 77 1020.4
20260830141839 19 180 0.0 6.4 0.00 0.00 0.00 77 1020.1
20260830141335 18 99 1.6 6.4 0.00 0.00 0.00 78 1020.1
20260830140830 18 117 3.2 3.2 0.00 0.00 0.00 78 1020.1
20260830140325 18 127 3.2 6.4 0.00 0.00 0.00 77 1020.6
20260830135819 18 201 1.6 8.0 0.00 0.00 0.00 79 1020.5
20260830135315 19 248 4.8 6.4 0.00 0.00 0.00 74 1020.6
20260830134810 18 232 1.6 6.4 0.00 0.00 0.00 78 1020.6
20260830134310 18 141 4.8 6.4 0.00 0.00 0.00 79 1020.6